Weather in Santa Clara

Cuba     22°24′28″N   79°57′56″W
temp.,
°C
wind,
m/s
gust,
m/s
humid.,
%
clouds,
%
prec.,
mm/h
press.,
hPa
HPBL,
m
25 february, thu
thu2501:00+21ene37951 0.0 1020215
04:00+20ene379630 0.0 1018200
07:00+20e369517 0.0 1020159
10:00+27e68620 0.0 10201176
13:00+29ene67511 0.0 10191552
16:00+28ene77550 0.0 10171276
19:00+23ene49830 0.0 1018410
22:00+22ene410900 0.0 1019378
26 february, fri
fri2601:00+21e39931 0.0 1019288
04:00+20e24943 0.0 1017100
07:00+20ese25952 0.1 1018123
10:00+27ese68600 0.1 10191229
13:00+31e67434 0.2 10181900
16:00+28ene78617 0.1 10161037
19:00+23ene6127820 0.4 1017594
22:00+22e512850 0.0 1018627
27 february, sat
sat2701:00+21ese410882 0.0 1018506
04:00+20ese39900 0.0 1017298
07:00+19ese37892 0.0 1019194
10:00+27ese710561 0.0 10201382
13:00+31e68380 0.0 10181856
16:00+28ene89593 0.0 10161065
19:00+24ene713775 0.1 1018670
22:00+23e613800 0.0 1019750
28 february, sun
sun2801:00+22e412870 0.0 1019531
04:00+21ese310900 0.1 1018358
07:00+21ese412910 0.1 1019534
10:00+27e7106025 0.0 10201273
13:00+28e795754 0.1 10181465
16:00+28ene9106244 0.3 10161174
19:00+24e8147325 0.4 1017605
22:00+22ese513690 0.0 1019628
1 march, mon
mon101:00+21ese412870 0.0 1018499
04:00+20ese411900 0.0 1017350
07:00+20ese39930 0.0 1018229
10:00+27ese68600 0.0 10191153
13:00+31ese57430 0.0 10171775
16:00+28ene78582 0.0 1015741
19:00+24ene511791 0.0 1016470
22:00+23e39892 0.0 1018359